Location: *
(50.8512°N, 5.6907°E)
Time: 08:54:50
(UTC+00:00)

ATLAS CENTAUR R/B - Pass Details

Date: 09 April 2020
Orbit: 471 x 675 km, 64.7° (Epoch: 31 May)

Event Time Altitude Azimuth Distance (km) Brightness Sun altitude
Rises 21:54:15 0° 313° (NW) 2,661 5.9 -27.0°
Reaches altitude 10° 21:56:38 10° 304° (WNW) 1,736 4.6 -27.1°
Enters shadow 21:58:34 23° 282° (WNW) 1,091 3.2 -27.3°
